| time (UTC) | temp C | wind direction | speed KPH | gust KPH | rain 1hr cm | rain 24hr cm | rain mn cm | humidity % | barometer mb |
| 20260509024318 | 17 | 223 | 4.8 | 8.0 | 0.00 | 0.00 | 0.00 | 54 | 993.3 |
| 20260509023815 | 17 | 219 | 1.6 | 3.2 | 0.00 | 0.00 | 0.00 | 54 | 993.4 |
| 20260509023313 | 17 | 189 | 3.2 | 3.2 | 0.00 | 0.00 | 0.00 | 53 | 993.4 |
| 20260509022809 | 17 | 199 | 4.8 | 4.8 | 0.00 | 0.00 | 0.00 | 53 | 993.3 |
| 20260509022307 | 17 | 179 | 1.6 | 3.2 | 0.00 | 0.00 | 0.00 | 53 | 993.5 |
| 20260509021803 | 17 | 237 | 3.2 | 4.8 | 0.00 | 0.00 | 0.00 | 54 | 993.2 |
| 20260509021300 | 17 | 201 | 4.8 | 4.8 | 0.00 | 0.00 | 0.00 | 53 | 993.3 |
| 20260509020758 | 17 | 212 | 3.2 | 3.2 | 0.00 | 0.00 | 0.00 | 53 | 993.2 |
| 20260509020255 | 17 | 190 | 3.2 | 3.2 | 0.00 | 0.00 | 0.00 | 53 | 993.3 |
| 20260509015753 | 17 | 197 | 3.2 | 3.2 | 0.00 | 0.00 | 0.00 | 52 | 993.3 |
| 20260509015251 | 17 | 188 | 6.4 | 8.0 | 0.00 | 0.00 | 0.00 | 52 | 993.4 |
| 20260509014747 | 17 | 204 | 3.2 | 3.2 | 0.00 | 0.00 | 0.00 | 52 | 993.4 |
| 20260509014244 | 17 | 194 | 1.6 | 1.6 | 0.00 | 0.00 | 0.00 | 52 | 993.2 |
| 20260509013741 | 17 | 183 | 4.8 | 4.8 | 0.00 | 0.00 | 0.00 | 52 | 993.2 |
| 20260509013236 | 17 | 173 | 3.2 | 3.2 | 0.00 | 0.00 | 0.00 | 52 | 993.3 |
| 20260509012733 | 18 | 203 | 3.2 | 4.8 | 0.00 | 0.00 | 0.00 | 51 | 993.1 |
| 20260509012230 | 18 | 208 | 4.8 | 4.8 | 0.00 | 0.00 | 0.00 | 51 | 993.1 |
| 20260509011727 | 18 | 182 | 1.6 | 1.6 | 0.00 | 0.00 | 0.00 | 51 | 993.0 |
| 20260509011225 | 18 | 198 | 6.4 | 9.7 | 0.00 | 0.00 | 0.00 | 50 | 993.1 |
| 20260509010723 | 18 | 216 | 4.8 | 4.8 | 0.00 | 0.00 | 0.00 | 50 | 993.0 |
| 20260509010219 | 18 | 195 | 1.6 | 3.2 | 0.00 | 0.00 | 0.00 | 51 | 993.1 |
| 20260509005717 | 18 | 216 | 3.2 | 3.2 | 0.00 | 0.00 | 0.00 | 51 | 993.0 |
| 20260509005214 | 18 | 210 | 4.8 | 4.8 | 0.00 | 0.00 | 0.00 | 50 | 993.1 |
| 20260509004714 | 18 | 195 | 3.2 | 4.8 | 0.00 | 0.00 | 0.00 | 50 | 993.0 |
| 20260509004212 | 18 | 204 | 6.4 | 8.0 | 0.00 | 0.00 | 0.00 | 49 | 993.0 |
| 20260509003710 | 18 | 203 | 4.8 | 8.0 | 0.00 | 0.00 | 0.00 | 50 | 992.9 |
| 20260509003207 | 18 | 247 | 4.8 | 4.8 | 0.00 | 0.00 | 0.00 | 50 | 992.8 |
| 20260509002704 | 18 | 203 | 9.7 | 11.3 | 0.00 | 0.00 | 0.00 | 49 | 992.9 |
| 20260509002201 | 18 | 223 | 4.8 | 4.8 | 0.00 | 0.00 | 0.00 | 49 | 992.9 |
| 20260509001659 | 18 | 207 | 3.2 | 3.2 | 0.00 | 0.00 | 0.00 | 49 | 992.8 |
| 20260509001155 | 18 | 260 | 8.0 | 9.7 | 0.00 | 0.00 | 0.00 | 48 | 992.9 |
| 20260509000653 | 18 | 212 | 3.2 | 3.2 | 0.00 | 0.00 | 0.00 | 49 | 992.9 |
| 20260509000149 | 18 | 209 | 6.4 | 8.0 | 0.00 | 0.00 | 0.00 | 49 | 993.0 |
| 20260508235647 | 19 | 211 | 6.4 | 9.7 | 0.00 | 0.00 | 0.00 | 49 | 993.0 |
| 20260508235143 | 19 | 217 | 6.4 | 8.0 | 0.00 | 0.00 | 0.00 | 48 | 993.0 |
| 20260508234640 | 19 | 245 | 6.4 | 8.0 | 0.00 | 0.00 | 0.00 | 48 | 993.0 |
| 20260508234136 | 19 | 249 | 8.0 | 9.7 | 0.00 | 0.00 | 0.00 | 47 | 993.0 |
| 20260508233631 | 19 | 209 | 8.0 | 9.7 | 0.00 | 0.00 | 0.00 | 46 | 992.9 |
| 20260508233128 | 19 | 206 | 6.4 | 8.0 | 0.00 | 0.00 | 0.00 | 47 | 993.1 |
| 20260508232625 | 19 | 203 | 6.4 | 9.7 | 0.00 | 0.00 | 0.00 | 47 | 993.1 |
| 20260508232121 | 19 | 263 | 12.9 | 16.1 | 0.00 | 0.00 | 0.00 | 47 | 992.9 |
| 20260508231619 | 19 | 242 | 8.0 | 11.3 | 0.00 | 0.00 | 0.00 | 47 | 993.0 |
| 20260508231116 | 20 | 222 | 4.8 | 8.0 | 0.00 | 0.00 | 0.00 | 48 | 992.9 |
| 20260508230612 | 20 | 260 | 6.4 | 9.7 | 0.00 | 0.00 | 0.00 | 47 | 993.1 |
| 20260508230109 | 20 | 215 | 4.8 | 8.0 | 0.00 | 0.00 | 0.00 | 48 | 992.7 |
| 20260508225607 | 20 | 214 | 8.0 | 11.3 | 0.00 | 0.00 | 0.00 | 48 | 992.9 |
| 20260508225103 | 20 | 209 | 6.4 | 9.7 | 0.00 | 0.00 | 0.00 | 48 | 992.9 |
| 20260508224601 | 20 | 221 | 3.2 | 3.2 | 0.00 | 0.00 | 0.00 | 48 | 992.9 |
| 20260508224058 | 20 | 198 | 4.8 | 9.7 | 0.00 | 0.00 | 0.00 | 47 | 992.9 |
| 20260508223556 | 20 | 225 | 8.0 | 9.7 | 0.00 | 0.00 | 0.00 | 47 | 992.7 |
| 20260508223053 | 20 | 241 | 9.7 | 11.3 | 0.00 | 0.00 | 0.00 | 46 | 992.8 |
| 20260508222550 | 20 | 244 | 8.0 | 11.3 | 0.00 | 0.00 | 0.00 | 45 | 992.8 |
| 20260508222047 | 20 | 237 | 4.8 | 4.8 | 0.00 | 0.00 | 0.00 | 47 | 992.9 |
| 20260508221543 | 20 | 210 | 8.0 | 11.3 | 0.00 | 0.00 | 0.00 | 46 | 992.7 |
| 20260508221039 | 20 | 212 | 6.4 | 8.0 | 0.00 | 0.00 | 0.00 | 45 | 992.6 |
| 20260508220536 | 20 | 226 | 4.8 | 9.7 | 0.00 | 0.00 | 0.00 | 47 | 992.8 |
| 20260508220032 | 20 | 206 | 9.7 | 12.9 | 0.00 | 0.00 | 0.00 | 46 | 992.6 |
| 20260508215529 | 20 | 195 | 6.4 | 9.7 | 0.00 | 0.00 | 0.00 | 46 | 992.8 |
| 20260508215026 | 20 | 194 | 4.8 | 8.0 | 0.00 | 0.00 | 0.00 | 46 | 992.7 |
| 20260508214524 | 21 | 249 | 8.0 | 12.9 | 0.00 | 0.00 | 0.00 | 45 | 992.8 |
| 20260508214020 | 20 | 219 | 8.0 | 11.3 | 0.00 | 0.00 | 0.00 | 46 | 992.9 |
| 20260508213517 | 20 | 246 | 6.4 | 9.7 | 0.00 | 0.00 | 0.00 | 46 | 992.8 |
| 20260508213013 | 20 | 211 | 11.3 | 17.7 | 0.00 | 0.00 | 0.00 | 45 | 992.7 |
| 20260508212509 | 21 | 239 | 11.3 | 14.5 | 0.00 | 0.00 | 0.00 | 45 | 992.8 |
| 20260508212006 | 21 | 226 | 11.3 | 17.7 | 0.00 | 0.00 | 0.00 | 45 | 993.0 |
| 20260508211501 | 20 | 253 | 14.5 | 16.1 | 0.00 | 0.00 | 0.00 | 45 | 993.0 |
| 20260508210958 | 20 | 233 | 12.9 | 20.9 | 0.00 | 0.00 | 0.00 | 45 | 993.1 |
| 20260508210455 | 21 | 223 | 9.7 | 11.3 | 0.00 | 0.00 | 0.00 | 43 | 993.2 |
| 20260508205951 | 21 | 236 | 12.9 | 16.1 | 0.00 | 0.00 | 0.00 | 44 | 993.3 |
| 20260508205448 | 21 | 236 | 4.8 | 4.8 | 0.00 | 0.00 | 0.00 | 46 | 993.3 |
| 20260508204945 | 21 | 197 | 8.0 | 11.3 | 0.00 | 0.00 | 0.00 | 45 | 993.2 |
| 20260508204442 | 21 | 214 | 14.5 | 20.9 | 0.00 | 0.00 | 0.00 | 44 | 993.4 |
| 20260508203937 | 21 | 162 | 6.4 | 8.0 | 0.00 | 0.00 | 0.00 | 43 | 993.5 |
| 20260508203434 | 20 | 241 | 6.4 | 9.7 | 0.00 | 0.00 | 0.00 | 45 | 993.6 |
| 20260508202929 | 21 | 234 | 12.9 | 24.1 | 0.00 | 0.00 | 0.00 | 43 | 993.7 |
| 20260508202427 | 21 | 211 | 6.4 | 9.7 | 0.00 | 0.00 | 0.00 | 46 | 993.4 |
| 20260508201924 | 20 | 178 | 6.4 | 9.7 | 0.00 | 0.00 | 0.00 | 44 | 993.7 |
| 20260508201421 | 20 | 240 | 11.3 | 12.9 | 0.00 | 0.00 | 0.00 | 43 | 993.8 |
| 20260508200917 | 20 | 179 | 6.4 | 9.7 | 0.00 | 0.00 | 0.00 | 47 | 994.0 |
| 20260508200414 | 20 | 220 | 3.2 | 4.8 | 0.00 | 0.00 | 0.00 | 45 | 994.1 |
| 20260508195904 | 21 | 229 | 6.4 | 8.0 | 0.00 | 0.00 | 0.00 | 43 | 994.2 |
| 20260508195401 | 21 | 210 | 4.8 | 4.8 | 0.00 | 0.00 | 0.00 | 45 | 994.1 |
| 20260508194857 | 21 | 234 | 6.4 | 9.7 | 0.00 | 0.00 | 0.00 | 43 | 994.2 |
| 20260508194354 | 21 | 219 | 12.9 | 17.7 | 0.00 | 0.00 | 0.00 | 41 | 994.2 |
| 20260508193851 | 21 | 211 | 8.0 | 11.3 | 0.00 | 0.00 | 0.00 | 44 | 994.5 |
| 20260508193348 | 21 | 232 | 11.3 | 14.5 | 0.00 | 0.00 | 0.00 | 41 | 994.2 |
| 20260508192844 | 21 | 240 | 9.7 | 12.9 | 0.00 | 0.00 | 0.00 | 43 | 994.2 |
| 20260508192341 | 21 | 233 | 6.4 | 9.7 | 0.00 | 0.00 | 0.00 | 43 | 994.3 |
| 20260508191838 | 21 | 180 | 4.8 | 4.8 | 0.00 | 0.00 | 0.00 | 44 | 994.3 |
| 20260508191336 | 21 | 197 | 3.2 | 3.2 | 0.00 | 0.00 | 0.00 | 46 | 994.4 |
| 20260508190833 | 21 | 232 | 6.4 | 8.0 | 0.00 | 0.00 | 0.00 | 42 | 994.4 |
| 20260508190329 | 21 | 219 | 8.0 | 12.9 | 0.00 | 0.00 | 0.00 | 43 | 994.5 |
| 20260508185825 | 21 | 198 | 8.0 | 11.3 | 0.00 | 0.00 | 0.00 | 45 | 994.5 |
| 20260508185323 | 21 | 328 | 8.0 | 11.3 | 0.00 | 0.00 | 0.00 | 43 | 994.6 |
| 20260508184820 | 21 | 207 | 9.7 | 12.9 | 0.00 | 0.00 | 0.00 | 42 | 994.7 |
| 20260508184317 | 20 | 205 | 4.8 | 8.0 | 0.00 | 0.00 | 0.00 | 45 | 995.0 |
| 20260508183814 | 20 | 227 | 9.7 | 11.3 | 0.00 | 0.00 | 0.00 | 42 | 995.0 |
| 20260508183311 | 20 | 196 | 6.4 | 9.7 | 0.00 | 0.00 | 0.00 | 44 | 995.1 |
| 20260508182806 | 20 | 213 | 3.2 | 4.8 | 0.00 | 0.00 | 0.00 | 43 | 995.1 |
| 20260508182306 | 21 | 241 | 16.1 | 17.7 | 0.00 | 0.00 | 0.00 | 43 | 995.3 |
| 20260508181759 | 20 | 310 | 4.8 | 4.8 | 0.00 | 0.00 | 0.00 | 46 | 995.3 |
| 20260508181256 | 21 | 254 | 9.7 | 12.9 | 0.00 | 0.00 | 0.00 | 45 | 995.5 |
| 20260508180753 | 20 | 227 | 4.8 | 4.8 | 0.00 | 0.00 | 0.00 | 49 | 995.5 |
| 20260508180250 | 20 | 200 | 14.5 | 24.1 | 0.00 | 0.00 | 0.00 | 43 | 995.6 |
| 20260508175746 | 20 | 256 | 8.0 | 9.7 | 0.00 | 0.00 | 0.00 | 46 | 995.8 |
| 20260508175243 | 20 | 215 | 11.3 | 12.9 | 0.00 | 0.00 | 0.00 | 44 | 995.7 |
| 20260508174741 | 20 | 200 | 8.0 | 11.3 | 0.00 | 0.00 | 0.00 | 47 | 995.8 |
| 20260508174238 | 20 | 188 | 6.4 | 9.7 | 0.00 | 0.00 | 0.00 | 46 | 996.0 |
| 20260508173734 | 20 | 188 | 14.5 | 17.7 | 0.00 | 0.00 | 0.00 | 44 | 995.8 |
| 20260508173230 | 20 | 214 | 14.5 | 14.5 | 0.00 | 0.00 | 0.00 | 46 | 996.0 |
| 20260508172727 | 20 | 178 | 3.2 | 3.2 | 0.00 | 0.00 | 0.00 | 47 | 996.2 |
| 20260508172224 | 20 | 226 | 8.0 | 11.3 | 0.00 | 0.00 | 0.00 | 51 | 996.3 |
| 20260508171721 | 20 | 202 | 3.2 | 3.2 | 0.00 | 0.00 | 0.00 | 49 | 996.3 |
| 20260508171217 | 20 | 227 | 6.4 | 8.0 | 0.00 | 0.00 | 0.00 | 49 | 996.6 |
| 20260508170714 | 20 | 129 | 4.8 | 4.8 | 0.00 | 0.00 | 0.00 | 48 | 996.5 |
| 20260508170212 | 19 | 189 | 1.6 | 1.6 | 0.00 | 0.00 | 0.00 | 50 | 996.6 |
| 20260508165708 | 20 | 280 | 6.4 | 8.0 | 0.00 | 0.00 | 0.00 | 51 | 996.7 |
| 20260508165206 | 20 | 263 | 6.4 | 9.7 | 0.00 | 0.00 | 0.00 | 48 | 996.9 |
| 20260508164702 | 20 | 231 | 6.4 | 11.3 | 0.00 | 0.00 | 0.00 | 50 | 997.0 |
| 20260508164159 | 19 | 276 | 8.0 | 12.9 | 0.00 | 0.00 | 0.00 | 48 | 997.0 |
| 20260508163657 | 20 | 231 | 8.0 | 12.9 | 0.00 | 0.00 | 0.00 | 50 | 997.1 |
| 20260508163154 | 19 | 236 | 6.4 | 8.0 | 0.00 | 0.00 | 0.00 | 50 | 997.4 |
| 20260508162649 | 18 | 229 | 6.4 | 11.3 | 0.00 | 0.00 | 0.00 | 51 | 997.2 |
| 20260508162147 | 18 | 162 | 8.0 | 12.9 | 0.00 | 0.00 | 0.00 | 51 | 997.4 |
| 20260508161644 | 18 | 274 | 9.7 | 11.3 | 0.00 | 0.00 | 0.00 | 50 | 997.5 |
| 20260508161141 | 18 | 187 | 4.8 | 8.0 | 0.00 | 0.00 | 0.00 | 51 | 997.6 |
| 20260508160639 | 18 | 254 | 8.0 | 16.1 | 0.00 | 0.00 | 0.00 | 51 | 997.7 |
| 20260508160137 | 18 | 296 | 8.0 | 11.3 | 0.00 | 0.00 | 0.00 | 50 | 997.7 |
| 20260508155634 | 18 | 169 | 11.3 | 14.5 | 0.00 | 0.00 | 0.00 | 49 | 997.7 |
| 20260508155131 | 18 | 208 | 14.5 | 14.5 | 0.00 | 0.00 | 0.00 | 50 | 997.8 |
| 20260508154628 | 17 | 210 | 3.2 | 3.2 | 0.00 | 0.00 | 0.00 | 54 | 997.9 |
| 20260508154124 | 18 | 247 | 9.7 | 14.5 | 0.00 | 0.00 | 0.00 | 51 | 997.8 |
| 20260508153621 | 18 | 208 | 8.0 | 12.9 | 0.00 | 0.00 | 0.00 | 53 | 997.9 |
| 20260508153118 | 18 | 236 | 11.3 | 14.5 | 0.00 | 0.00 | 0.00 | 51 | 998.0 |
| 20260508152615 | 18 | 280 | 8.0 | 9.7 | 0.00 | 0.00 | 0.00 | 53 | 998.2 |
| 20260508152110 | 17 | 238 | 1.6 | 4.8 | 0.00 | 0.00 | 0.00 | 54 | 998.2 |
| 20260508151607 | 17 | 232 | 11.3 | 14.5 | 0.00 | 0.00 | 0.00 | 51 | 998.3 |
| 20260508151104 | 17 | 220 | 11.3 | 16.1 | 0.00 | 0.00 | 0.00 | 52 | 998.4 |
| 20260508150601 | 17 | 247 | 9.7 | 14.5 | 0.00 | 0.00 | 0.00 | 54 | 998.4 |
| 20260508150057 | 17 | 293 | 4.8 | 9.7 | 0.00 | 0.00 | 0.00 | 54 | 998.4 |
| 20260508145554 | 17 | 237 | 9.7 | 12.9 | 0.00 | 0.00 | 0.00 | 54 | 998.2 |
| 20260508145050 | 16 | 231 | 8.0 | 9.7 | 0.00 | 0.00 | 0.00 | 53 | 998.4 |
| 20260508144548 | 16 | 215 | 8.0 | 12.9 | 0.00 | 0.00 | 0.00 | 55 | 998.2 |
| 20260508144045 | 16 | 202 | 9.7 | 12.9 | 0.00 | 0.00 | 0.00 | 56 | 998.4 |
| 20260508143542 | 16 | 309 | 20.9 | 24.1 | 0.00 | 0.00 | 0.00 | 55 | 998.3 |
| 20260508143039 | 16 | 231 | 4.8 | 8.0 | 0.00 | 0.00 | 0.00 | 57 | 998.2 |
| 20260508142536 | 16 | 262 | 3.2 | 4.8 | 0.00 | 0.00 | 0.00 | 58 | 998.5 |
| 20260508142032 | 15 | 191 | 3.2 | 3.2 | 0.00 | 0.00 | 0.00 | 58 | 998.6 |
| 20260508141529 | 15 | 196 | 6.4 | 8.0 | 0.00 | 0.00 | 0.00 | 58 | 998.6 |
| 20260508141027 | 15 | 222 | 4.8 | 4.8 | 0.00 | 0.00 | 0.00 | 59 | 998.6 |
| 20260508140524 | 15 | 325 | 8.0 | 9.7 | 0.00 | 0.00 | 0.00 | 58 | 998.6 |
| 20260508140020 | 15 | 282 | 4.8 | 8.0 | 0.00 | 0.00 | 0.00 | 60 | 998.5 |
| 20260508135515 | 15 | 259 | 6.4 | 9.7 | 0.00 | 0.00 | 0.00 | 60 | 998.8 |
| 20260508135012 | 13 | 215 | 8.0 | 9.7 | 0.00 | 0.00 | 0.00 | 60 | 998.7 |
| 20260508134509 | 14 | 193 | 6.4 | 8.0 | 0.00 | 0.00 | 0.00 | 59 | 998.7 |
| 20260508134006 | 13 | 206 | 4.8 | 8.0 | 0.00 | 0.00 | 0.00 | 62 | 998.6 |
| 20260508133503 | 13 | 212 | 9.7 | 12.9 | 0.00 | 0.00 | 0.00 | 61 | 998.7 |
| 20260508133000 | 13 | 210 | 8.0 | 11.3 | 0.00 | 0.00 | 0.00 | 63 | 998.6 |
| 20260508132458 | 12 | 226 | 6.4 | 8.0 | 0.00 | 0.00 | 0.00 | 64 | 998.6 |
| 20260508131954 | 12 | 215 | 4.8 | 4.8 | 0.00 | 0.00 | 0.00 | 65 | 998.7 |
| 20260508131449 | 12 | 209 | 4.8 | 4.8 | 0.00 | 0.00 | 0.00 | 64 | 998.7 |
| 20260508130946 | 11 | 249 | 4.8 | 9.7 | 0.00 | 0.00 | 0.00 | 65 | 998.6 |
| 20260508130444 | 11 | 196 | 8.0 | 9.7 | 0.00 | 0.00 | 0.00 | 64 | 998.7 |
| 20260508125939 | 11 | 242 | 4.8 | 8.0 | 0.00 | 0.00 | 0.00 | 65 | 998.6 |
| 20260508125435 | 11 | 233 | 6.4 | 9.7 | 0.00 | 0.00 | 0.00 | 66 | 998.5 |
| 20260508124933 | 11 | 237 | 4.8 | 4.8 | 0.00 | 0.00 | 0.00 | 67 | 998.6 |
| 20260508124431 | 11 | 197 | 3.2 | 3.2 | 0.00 | 0.00 | 0.00 | 68 | 998.5 |
| 20260508123928 | 10 | 197 | 1.6 | 3.2 | 0.00 | 0.00 | 0.00 | 68 | 998.7 |
| 20260508123427 | 10 | 232 | 8.0 | 8.0 | 0.00 | 0.00 | 0.00 | 68 | 998.5 |
| 20260508122923 | 10 | 203 | 4.8 | 8.0 | 0.00 | 0.00 | 0.00 | 70 | 998.5 |
| 20260508122420 | 10 | 233 | 4.8 | 4.8 | 0.00 | 0.00 | 0.00 | 71 | 998.4 |
| 20260508121917 | 9 | 189 | 3.2 | 4.8 | 0.00 | 0.00 | 0.00 | 71 | 998.3 |
| 20260508121415 | 9 | 219 | 4.8 | 4.8 | 0.00 | 0.00 | 0.00 | 71 | 998.5 |
| 20260508120913 | 8 | 209 | 4.8 | 4.8 | 0.00 | 0.00 | 0.00 | 71 | 998.4 |
| 20260508120410 | 8 | 230 | 4.8 | 8.0 | 0.00 | 0.00 | 0.00 | 72 | 998.6 |
| 20260508115908 | 8 | 217 | 3.2 | 3.2 | 0.00 | 0.00 | 0.00 | 73 | 998.7 |
| 20260508115406 | 8 | 198 | 1.6 | 3.2 | 0.00 | 0.00 | 0.00 | 74 | 998.4 |
| 20260508114901 | 8 | 223 | 4.8 | 8.0 | 0.00 | 0.00 | 0.00 | 75 | 998.3 |
| 20260508114359 | 7 | 235 | 4.8 | 8.0 | 0.00 | 0.00 | 0.00 | 75 | 998.2 |
| 20260508113855 | 7 | 251 | 4.8 | 4.8 | 0.00 | 0.00 | 0.00 | 76 | 998.3 |
| 20260508113353 | 7 | 219 | 3.2 | 3.2 | 0.00 | 0.00 | 0.00 | 78 | 998.2 |
| 20260508112850 | 7 | 221 | 3.2 | 3.2 | 0.00 | 0.00 | 0.00 | 78 | 998.2 |
| 20260508112347 | 6 | 198 | 4.8 | 4.8 | 0.00 | 0.00 | 0.00 | 79 | 998.1 |
| 20260508111843 | 6 | 216 | 4.8 | 4.8 | 0.00 | 0.00 | 0.00 | 80 | 998.2 |
| 20260508111340 | 6 | 193 | 1.6 | 1.6 | 0.00 | 0.00 | 0.00 | 81 | 998.0 |
| 20260508110837 | 6 | 199 | 1.6 | 1.6 | 0.00 | 0.00 | 0.00 | 81 | 998.3 |
| 20260508110335 | 6 | 194 | 1.6 | 1.6 | 0.00 | 0.00 | 0.00 | 81 | 998.1 |
| 20260508105835 | 5 | 200 | 1.6 | 3.2 | 0.00 | 0.00 | 0.00 | 82 | 997.9 |
| 20260508105332 | 5 | 195 | 0.0 | 0.0 | 0.00 | 0.00 | 0.00 | 84 | 998.0 |
| 20260508104829 | 5 | 201 | 0.0 | 0.0 | 0.00 | 0.00 | 0.00 | 84 | 998.1 |
| 20260508104325 | 5 | 186 | 0.0 | 0.0 | 0.00 | 0.00 | 0.00 | 84 | 997.8 |
| 20260508103823 | 5 | 192 | 1.6 | 1.6 | 0.00 | 0.00 | 0.00 | 84 | 997.9 |
| 20260508103319 | 5 | 182 | 0.0 | 0.0 | 0.00 | 0.00 | 0.00 | 84 | 998.0 |
| 20260508102817 | 5 | 189 | 0.0 | 0.0 | 0.00 | 0.00 | 0.00 | 84 | 997.8 |
| 20260508102315 | 5 | 200 | 0.0 | 0.0 | 0.00 | 0.00 | 0.00 | 84 | 998.0 |
| 20260508101812 | 5 | 193 | 0.0 | 0.0 | 0.00 | 0.00 | 0.00 | 85 | 998.0 |
| 20260508101310 | 5 | 193 | 0.0 | 0.0 | 0.00 | 0.00 | 0.00 | 86 | 997.9 |
| 20260508100807 | 5 | 193 | 0.0 | 0.0 | 0.00 | 0.00 | 0.00 | 86 | 997.9 |
| 20260508100306 | 5 | 193 | 0.0 | 0.0 | 0.00 | 0.00 | 0.00 | 86 | 997.9 |
| 20260508095801 | 5 | 193 | 0.0 | 0.0 | 0.00 | 0.00 | 0.00 | 87 | 998.2 |
| 20260508095259 | 5 | 193 | 0.0 | 0.0 | 0.00 | 0.00 | 0.00 | 86 | 997.9 |
| 20260508094755 | 5 | 193 | 0.0 | 0.0 | 0.00 | 0.00 | 0.00 | 86 | 998.1 |
| 20260508094252 | 4 | 192 | 0.0 | 0.0 | 0.00 | 0.00 | 0.00 | 87 | 997.8 |
| 20260508093749 | 4 | 192 | 0.0 | 0.0 | 0.00 | 0.00 | 0.00 | 89 | 997.7 |
| 20260508093247 | 4 | 193 | 0.0 | 0.0 | 0.00 | 0.00 | 0.00 | 89 | 997.9 |
| 20260508092743 | 3 | 193 | 0.0 | 0.0 | 0.00 | 0.00 | 0.00 | 89 | 997.8 |
| 20260508092242 | 4 | 193 | 0.0 | 0.0 | 0.00 | 0.00 | 0.00 | 88 | 997.9 |
| 20260508091740 | 4 | 193 | 0.0 | 0.0 | 0.00 | 0.00 | 0.00 | 88 | 997.6 |
| 20260508091236 | 4 | 193 | 0.0 | 0.0 | 0.00 | 0.00 | 0.00 | 88 | 997.7 |
| 20260508090734 | 4 | 193 | 0.0 | 0.0 | 0.00 | 0.00 | 0.00 | 89 | 997.7 |
| 20260508090232 | 4 | 193 | 0.0 | 0.0 | 0.00 | 0.00 | 0.00 | 91 | 997.9 |
| 20260508085727 | 3 | 193 | 0.0 | 0.0 | 0.00 | 0.00 | 0.00 | 93 | 997.9 |
| 20260508085225 | 3 | 193 | 0.0 | 0.0 | 0.00 | 0.00 | 0.00 | 92 | 997.8 |
| 20260508084720 | 3 | 193 | 0.0 | 0.0 | 0.00 | 0.00 | 0.00 | 91 | 997.7 |
| 20260508084218 | 3 | 193 | 0.0 | 0.0 | 0.00 | 0.00 | 0.00 | 91 | 997.7 |
| 20260508083715 | 3 | 193 | 0.0 | 0.0 | 0.00 | 0.00 | 0.00 | 90 | 997.9 |
| 20260508083213 | 3 | 193 | 0.0 | 0.0 | 0.00 | 0.00 | 0.00 | 90 | 997.8 |
| 20260508082708 | 4 | 193 | 0.0 | 0.0 | 0.00 | 0.00 | 0.00 | 89 | 997.7 |
| 20260508082206 | 4 | 193 | 0.0 | 0.0 | 0.00 | 0.00 | 0.00 | 88 | 997.8 |
| 20260508081703 | 4 | 193 | 0.0 | 0.0 | 0.00 | 0.00 | 0.00 | 87 | 997.7 |
| 20260508081159 | 4 | 193 | 0.0 | 0.0 | 0.00 | 0.00 | 0.00 | 85 | 997.6 |
| 20260508080656 | 5 | 193 | 0.0 | 0.0 | 0.00 | 0.00 | 0.00 | 84 | 997.6 |
| 20260508080155 | 5 | 193 | 0.0 | 0.0 | 0.00 | 0.00 | 0.00 | 83 | 997.6 |
| 20260508075651 | 5 | 193 | 0.0 | 0.0 | 0.00 | 0.00 | 0.00 | 81 | 997.4 |
| 20260508075148 | 6 | 193 | 0.0 | 0.0 | 0.00 | 0.00 | 0.00 | 80 | 997.5 |
| 20260508074645 | 5 | 193 | 0.0 | 0.0 | 0.00 | 0.00 | 0.00 | 81 | 997.6 |
| 20260508074142 | 5 | 192 | 0.0 | 0.0 | 0.00 | 0.00 | 0.00 | 82 | 997.6 |
| 20260508073639 | 5 | 192 | 0.0 | 0.0 | 0.00 | 0.00 | 0.00 | 82 | 997.6 |
| 20260508073137 | 5 | 192 | 0.0 | 0.0 | 0.00 | 0.00 | 0.00 | 82 | 997.4 |
| 20260508072633 | 5 | 192 | 0.0 | 0.0 | 0.00 | 0.00 | 0.00 | 83 | 997.5 |
| 20260508072130 | 5 | 192 | 0.0 | 0.0 | 0.00 | 0.00 | 0.00 | 85 | 997.8 |
| 20260508071627 | 5 | 192 | 0.0 | 0.0 | 0.00 | 0.00 | 0.00 | 87 | 997.6 |
| 20260508071126 | 5 | 192 | 0.0 | 0.0 | 0.00 | 0.00 | 0.00 | 88 | 997.6 |
| 20260508070623 | 5 | 192 | 0.0 | 0.0 | 0.00 | 0.00 | 0.00 | 88 | 997.8 |
| 20260508070122 | 5 | 192 | 0.0 | 0.0 | 0.00 | 0.00 | 0.00 | 87 | 997.9 |
| 20260508065618 | 5 | 192 | 0.0 | 0.0 | 0.00 | 0.00 | 0.00 | 87 | 998.1 |
| 20260508065116 | 4 | 192 | 0.0 | 0.0 | 0.00 | 0.00 | 0.00 | 88 | 998.0 |
| 20260508064613 | 4 | 192 | 0.0 | 0.0 | 0.00 | 0.00 | 0.00 | 88 | 998.2 |
| 20260508064112 | 4 | 192 | 0.0 | 0.0 | 0.00 | 0.00 | 0.00 | 88 | 998.2 |
| 20260508063609 | 4 | 192 | 0.0 | 0.0 | 0.00 | 0.00 | 0.00 | 87 | 998.1 |
| 20260508063107 | 5 | 192 | 0.0 | 0.0 | 0.00 | 0.00 | 0.00 | 86 | 998.1 |
| 20260508062604 | 5 | 192 | 0.0 | 0.0 | 0.00 | 0.00 | 0.00 | 86 | 998.5 |
| 20260508062100 | 5 | 192 | 0.0 | 0.0 | 0.00 | 0.00 | 0.00 | 84 | 998.3 |
| 20260508061558 | 5 | 192 | 0.0 | 0.0 | 0.00 | 0.00 | 0.00 | 83 | 998.3 |
| 20260508061055 | 5 | 192 | 0.0 | 0.0 | 0.00 | 0.00 | 0.00 | 82 | 998.5 |
| 20260508060552 | 5 | 192 | 0.0 | 0.0 | 0.00 | 0.00 | 0.00 | 81 | 998.4 |
| 20260508060049 | 5 | 192 | 0.0 | 0.0 | 0.00 | 0.00 | 0.00 | 81 | 998.5 |
| 20260508055544 | 6 | 192 | 0.0 | 0.0 | 0.00 | 0.00 | 0.00 | 81 | 998.5 |
| 20260508055042 | 6 | 192 | 0.0 | 0.0 | 0.00 | 0.00 | 0.00 | 81 | 998.5 |
| 20260508054538 | 6 | 192 | 0.0 | 0.0 | 0.00 | 0.00 | 0.00 | 81 | 998.4 |
| 20260508054035 | 6 | 192 | 0.0 | 0.0 | 0.00 | 0.00 | 0.00 | 80 | 998.6 |
| 20260508053532 | 6 | 192 | 0.0 | 0.0 | 0.00 | 0.00 | 0.00 | 80 | 998.4 |
| 20260508053031 | 6 | 192 | 0.0 | 0.0 | 0.00 | 0.00 | 0.00 | 79 | 998.6 |
| 20260508052527 | 6 | 192 | 0.0 | 0.0 | 0.00 | 0.00 | 0.00 | 78 | 998.3 |
| 20260508052024 | 6 | 192 | 0.0 | 0.0 | 0.00 | 0.00 | 0.00 | 80 | 998.4 |
| 20260508051520 | 6 | 192 | 0.0 | 0.0 | 0.00 | 0.00 | 0.00 | 81 | 998.4 |
| 20260508051015 | 6 | 192 | 0.0 | 0.0 | 0.00 | 0.00 | 0.00 | 81 | 998.3 |
| 20260508050512 | 6 | 192 | 0.0 | 0.0 | 0.00 | 0.00 | 0.00 | 80 | 998.1 |
| 20260508050010 | 6 | 192 | 0.0 | 0.0 | 0.00 | 0.00 | 0.00 | 80 | 998.3 |
| 20260508045506 | 6 | 192 | 0.0 | 0.0 | 0.00 | 0.00 | 0.00 | 78 | 998.5 |
| 20260508045004 | 6 | 192 | 0.0 | 0.0 | 0.00 | 0.00 | 0.00 | 76 | 998.4 |
| 20260508044501 | 6 | 192 | 0.0 | 0.0 | 0.00 | 0.00 | 0.00 | 75 | 998.4 |
| 20260508043956 | 7 | 192 | 0.0 | 0.0 | 0.00 | 0.00 | 0.00 | 74 | 998.4 |
| 20260508043453 | 7 | 192 | 0.0 | 0.0 | 0.00 | 0.00 | 0.00 | 74 | 998.3 |
| 20260508042949 | 7 | 192 | 0.0 | 0.0 | 0.00 | 0.00 | 0.00 | 76 | 998.5 |
| 20260508042447 | 6 | 192 | 0.0 | 0.0 | 0.00 | 0.00 | 0.00 | 78 | 998.3 |
| 20260508041944 | 7 | 192 | 0.0 | 0.0 | 0.00 | 0.00 | 0.00 | 79 | 998.2 |
| 20260508041440 | 7 | 192 | 0.0 | 0.0 | 0.00 | 0.00 | 0.00 | 78 | 998.1 |
| 20260508040937 | 7 | 191 | 0.0 | 0.0 | 0.00 | 0.00 | 0.00 | 76 | 998.2 |
| 20260508040435 | 7 | 191 | 0.0 | 0.0 | 0.00 | 0.00 | 0.00 | 76 | 998.3 |
| 20260508035932 | 7 | 191 | 0.0 | 0.0 | 0.00 | 0.00 | 0.00 | 76 | 998.3 |
| 20260508035429 | 7 | 191 | 0.0 | 0.0 | 0.00 | 0.00 | 0.00 | 74 | 998.4 |
| 20260508034926 | 7 | 191 | 0.0 | 0.0 | 0.00 | 0.00 | 0.00 | 74 | 998.2 |
| 20260508034423 | 7 | 191 | 0.0 | 0.0 | 0.00 | 0.00 | 0.00 | 74 | 998.3 |
| 20260508033919 | 7 | 191 | 0.0 | 0.0 | 0.00 | 0.00 | 0.00 | 74 | 998.3 |
| 20260508033418 | 7 | 191 | 0.0 | 0.0 | 0.00 | 0.00 | 0.00 | 76 | 998.4 |
| 20260508032915 | 7 | 190 | 0.0 | 0.0 | 0.00 | 0.00 | 0.00 | 77 | 998.3 |
| 20260508032412 | 7 | 189 | 0.0 | 0.0 | 0.00 | 0.00 | 0.00 | 77 | 998.3 |
| 20260508031909 | 7 | 189 | 0.0 | 0.0 | 0.00 | 0.00 | 0.00 | 77 | 998.3 |
| 20260508031407 | 7 | 187 | 0.0 | 0.0 | 0.00 | 0.00 | 0.00 | 78 | 998.3 |
| 20260508030902 | 7 | 185 | 0.0 | 0.0 | 0.00 | 0.00 | 0.00 | 80 | 998.3 |
| 20260508030359 | 7 | 185 | 0.0 | 0.0 | 0.00 | 0.00 | 0.00 | 82 | 998.3 |
| 20260508025856 | 6 | 182 | 0.0 | 0.0 | 0.00 | 0.00 | 0.00 | 83 | 998.3 |
| 20260508025353 | 6 | 177 | 0.0 | 0.0 | 0.00 | 0.00 | 0.00 | 83 | 998.3 |
| 20260508024850 | 6 | 176 | 0.0 | 0.0 | 0.00 | 0.00 | 0.00 | 83 | 998.3 |